Regional Weather Roundup
Issued by NWS

Home | Current Version | Previous Version | Text Only | Print | Product List | Glossary Off
Versions: 1 2 3 4 5 6 7 8 9 10 11 12 13 14 15 16 17 18 19 20 21 22 23 24 25 26 27 28 29 30 31 32 33 34 35 36 37 38 39 40 41 42 43 44 45 46 47 48 49 50

987
ASUS43 KLMK 051210
RWRKY
KENTUCKY REGIONAL WEATHER ROUNDUP
NATIONAL WEATHER SERVICE LOUISVILLE KY
800 AM EDT THU MAY 05 2016

NOTE "FAIR" INDICATES FEW OR NO CLOUDS BELOW 12,000 FEET
WITH NO SIGNIFICANT WEATHER AND/OR OBSTRUCTIONS TO VISIBILITY.

KYZ001>023-026-027-061>063-070>075-051300-
WESTERN AND SOUTH CENTRAL KENTUCKY

CITY           SKY/WX    TMP DP  RH WIND       PRES   REMARKS
PADUCAH        SUNNY     50  40  68 NW7       29.87R
HENDERSON      SUNNY     48  37  66 W14       29.84R
OWENSBORO      PTSUNNY   49  41  74 N16G22    29.82R
HOPKINSVILLE   SUNNY     48  42  81 W10       29.82R
BOWLING GREEN  PTSUNNY   49  42  77 W7        29.79S
GLASGOW        PTSUNNY   43  43 100 SW5       29.78R
$$

KYZ024-025-028>034-038-045-046-053-051300-
NORTH CENTRAL KENTUCKY

CITY           SKY/WX    TMP DP  RH WIND       PRES   REMARKS
LOUISVILLE/SDF CLOUDY    46  39  76 N13       29.79R
LOUISVILLE/LOU CLOUDY    45  40  82 NW9       29.80R
FORT KNOX      CLOUDY    44  41  90 N13       29.77R
$$

KYZ035>037-039>044-047>052-055>060-089>105-051300-
NORTHEAST KENTUCKY

CITY           SKY/WX    TMP DP  RH WIND       PRES   REMARKS
LEXINGTON      CLOUDY    43  40  89 N8        29.77R
COVINGTON      CLOUDY    42  38  85 N7        29.78R
FRANKFORT      CLOUDY    43  39  86 N7        29.77R
$$

KYZ054-064>069-076>088-106>120-051300-
SOUTHEAST KENTUCKY

CITY           SKY/WX    TMP DP  RH WIND       PRES   REMARKS
JACKSON        LGT RAIN  42  39  89 CALM      29.75R
LONDON         LGT RAIN  44  40  85 CALM      29.76R
SOMERSET       LGT RAIN  43  41  93 CALM      29.78R
MIDDLESBORO    CLOUDY    42  42 100 CALM      29.77S
MONTICELLO     RAIN      45  43  93 W14       29.79R
$$





USA.gov is the U.S. government's official web portal to all federal, state and local government web resources and services.